C/2013 J5 ( Boattini )

Japanese version
Home page
Updated on April 29, 2014

---------------------------------------------------------------------

* Profile

Discovery Date May 13, 2013
Magnitude 20.4 mag
Discoverer Andrea Boattini (Catalina Sky Survey)

* Pictures

* Orbital Elements

Epoch 2012 Dec. 19.0 TT = JDT 2456280.5
T 2012 Nov. 30.07570 TT                                 MPC
q   4.9049996            (2000.0)            P               Q
z  +0.0001497      Peri.   19.17327     -0.44627393     -0.58628571
 +/-0.0003200      Node   256.76371     -0.88466639     +0.17512201
e   0.9992659      Incl.  136.00867     -0.13492574     +0.79094965
From 64 observations 2013 May 13-July 1, mean residual 0".6.

* Magnitudes Graph

        m1 = 9.5 + 5 log d + 10.0 log r

---------------------------------------------------------------------

The orbital elements are published on M.P.E.C. 2013-N23.
The magnitudes graphs are made with Comet for Windows.

---------------------------------------------------------------------

Copyright(C) Seiichi Yoshida (comet@aerith.net). All rights reserved.